Time,TemperatureF,DewpointF,PressureIn,WindDirection,WindDirectionDegrees,WindSpeedMPH,WindSpeedGustMPH,Humidity,HourlyPrecipIn,Conditions,Clouds,dailyrainin,SoftwareType,DateUTC
2013-04-01 00:00:00,66.1,56.8,29.92,South,171,0.0,0.0,72,0.00,,,0.00,Wunderground v.1.15,2013-04-01 04:00:00,
2013-04-01 00:02:00,66.0,56.7,29.92,South,171,0.0,0.0,72,0.00,,,0.00,Wunderground v.1.15,2013-04-01 04:02:00,
2013-04-01 00:07:00,66.0,56.7,29.92,South,171,0.0,0.0,72,0.00,,,0.00,Wunderground v.1.15,2013-04-01 04:07:00,
2013-04-01 00:13:00,65.8,56.5,29.92,South,171,0.0,0.0,72,0.00,,,0.00,Wunderground v.1.15,2013-04-01 04:13:00,
2013-04-01 00:18:00,65.6,56.7,29.91,South,171,0.0,0.0,73,0.00,,,0.00,Wunderground v.1.15,2013-04-01 04:18:00,
2013-04-01 00:24:00,65.5,56.6,29.91,South,171,0.0,0.0,73,0.00,,,0.00,Wunderground v.1.15,2013-04-01 04:24:00,
2013-04-01 00:29:00,65.5,57.0,29.91,South,171,0.0,0.0,74,0.00,,,0.00,Wunderground v.1.15,2013-04-01 04:29:00,
2013-04-01 00:35:00,65.5,57.0,29.90,South,171,0.0,0.0,74,0.00,,,0.00,Wunderground v.1.15,2013-04-01 04:35:00,
2013-04-01 00:41:00,65.5,57.0,29.90,South,172,0.0,0.0,74,0.00,,,0.00,Wunderground v.1.15,2013-04-01 04:41:00,
2013-04-01 00:46:00,65.5,57.4,29.90,South,172,0.0,0.0,75,0.00,,,0.00,Wunderground v.1.15,2013-04-01 04:46:00,
2013-04-01 00:52:00,65.5,57.4,29.90,South,171,0.0,0.0,75,0.00,,,0.00,Wunderground v.1.15,2013-04-01 04:52:00,
2013-04-01 00:58:00,65.5,57.4,29.90,South,171,0.0,0.0,75,0.00,,,0.00,Wunderground v.1.15,2013-04-01 04:58:00,
2013-04-01 01:04:00,65.6,57.8,29.90,SSE,160,0.0,0.0,76,0.00,,,0.00,Wunderground v.1.15,2013-04-01 05:04:00,
2013-04-01 01:10:00,65.6,57.8,29.90,SSE,164,0.0,0.0,76,0.00,,,0.00,Wunderground v.1.15,2013-04-01 05:10:00,
2013-04-01 01:15:00,65.8,58.0,29.90,SSE,167,0.0,0.0,76,0.00,,,0.00,Wunderground v.1.15,2013-04-01 05:15:00,
2013-04-01 01:22:00,66.0,58.2,29.90,South,181,0.0,0.0,76,0.00,,,0.00,Wunderground v.1.15,2013-04-01 05:22:00,
2013-04-01 01:27:00,66.0,58.2,29.90,SSE,148,6.0,6.0,76,0.00,,,0.00,Wunderground v.1.15,2013-04-01 05:27:00,
2013-04-01 01:32:00,66.1,58.3,29.90,ESE,120,1.0,1.0,76,0.00,,,0.00,Wunderground v.1.15,2013-04-01 05:32:00,
2013-04-01 01:38:00,66.3,58.5,29.90,SE,138,0.0,1.0,76,0.00,,,0.00,Wunderground v.1.15,2013-04-01 05:38:00,
2013-04-01 01:44:00,66.3,58.5,29.90,South,181,0.0,2.0,76,0.00,,,0.00,Wunderground v.1.15,2013-04-01 05:44:00,
2013-04-01 01:49:00,66.3,58.5,29.90,South,181,0.0,2.0,76,0.00,,,0.00,Wunderground v.1.15,2013-04-01 05:49:00,
2013-04-01 01:54:00,66.3,58.5,29.90,South,181,0.0,0.0,76,0.00,,,0.00,Wunderground v.1.15,2013-04-01 05:54:00,
2013-04-01 02:01:00,66.4,58.6,29.89,South,181,0.0,0.0,76,0.00,,,0.00,Wunderground v.1.15,2013-04-01 06:01:00,
2013-04-01 02:06:00,66.4,58.6,29.89,South,171,0.0,6.0,76,0.00,,,0.00,Wunderground v.1.15,2013-04-01 06:06:00,
2013-04-01 02:11:00,66.4,58.6,29.89,South,176,0.0,1.0,76,0.00,,,0.00,Wunderground v.1.15,2013-04-01 06:11:00,
2013-04-01 02:17:00,66.6,58.8,29.89,South,174,0.0,3.0,76,0.00,,,0.00,Wunderground v.1.15,2013-04-01 06:17:00,
2013-04-01 02:22:00,66.6,58.8,29.89,SSE,158,0.0,6.0,76,0.00,,,0.00,Wunderground v.1.15,2013-04-01 06:22:00,
2013-04-01 02:27:00,66.6,58.8,29.89,SSE,151,0.0,6.0,76,0.00,,,0.00,Wunderground v.1.15,2013-04-01 06:27:00,
2013-04-01 02:32:00,66.8,59.0,29.89,SW,233,0.0,2.0,76,0.00,,,0.00,Wunderground v.1.15,2013-04-01 06:32:00,
2013-04-01 02:37:00,66.8,59.0,29.89,South,181,0.0,2.0,76,0.00,,,0.00,Wunderground v.1.15,2013-04-01 06:37:00,
2013-04-01 02:42:00,66.8,59.0,29.89,South,181,0.0,3.0,76,0.00,,,0.00,Wunderground v.1.15,2013-04-01 06:42:00,
2013-04-01 02:47:00,66.8,59.0,29.88,SSW,193,0.0,6.0,76,0.00,,,0.00,Wunderground v.1.15,2013-04-01 06:47:00,
2013-04-01 02:52:00,66.8,59.0,29.88,SSE,160,0.0,1.0,76,0.00,,,0.00,Wunderground v.1.15,2013-04-01 06:52:00,
2013-04-01 02:57:00,66.9,59.1,29.88,SSE,164,1.0,1.0,76,0.00,,,0.00,Wunderground v.1.15,2013-04-01 06:57:00,
2013-04-01 03:02:00,66.9,59.5,29.88,SSE,161,0.0,0.0,77,0.00,,,0.00,Wunderground v.1.15,2013-04-01 07:02:00,
2013-04-01 03:08:00,66.8,59.4,29.88,SSE,155,0.0,3.0,77,0.00,,,0.00,Wunderground v.1.15,2013-04-01 07:08:00,
2013-04-01 03:13:00,66.8,59.4,29.88,SSE,165,0.0,0.0,77,0.00,,,0.00,Wunderground v.1.15,2013-04-01 07:13:00,
2013-04-01 03:18:00,66.8,59.4,29.87,SSE,152,0.0,2.0,77,0.00,,,0.00,Wunderground v.1.15,2013-04-01 07:18:00,
2013-04-01 03:23:00,66.8,59.4,29.87,SSE,155,0.0,0.0,77,0.00,,,0.00,Wunderground v.1.15,2013-04-01 07:23:00,
2013-04-01 03:28:00,66.6,59.2,29.87,SSE,152,0.0,1.0,77,0.00,,,0.00,Wunderground v.1.15,2013-04-01 07:28:00,
2013-04-01 03:33:00,66.6,59.2,29.87,SSE,167,0.0,0.0,77,0.00,,,0.00,Wunderground v.1.15,2013-04-01 07:33:00,
2013-04-01 03:38:00,66.4,59.3,29.87,SSE,151,0.0,3.0,78,0.00,,,0.00,Wunderground v.1.15,2013-04-01 07:38:00,
2013-04-01 03:43:00,66.4,59.3,29.87,SSE,165,0.0,0.0,78,0.00,,,0.00,Wunderground v.1.15,2013-04-01 07:43:00,
2013-04-01 03:48:00,66.4,59.3,29.87,SSE,147,0.0,5.0,78,0.00,,,0.00,Wunderground v.1.15,2013-04-01 07:48:00,
2013-04-01 03:53:00,66.4,59.3,29.87,SSE,161,0.0,4.0,78,0.00,,,0.00,Wunderground v.1.15,2013-04-01 07:53:00,
2013-04-01 03:58:00,66.4,59.3,29.87,SSE,165,3.0,6.0,78,0.00,,,0.00,Wunderground v.1.15,2013-04-01 07:58:00,
2013-04-01 04:03:00,66.4,59.3,29.86,South,184,0.0,5.0,78,0.00,,,0.00,Wunderground v.1.15,2013-04-01 08:03:00,
2013-04-01 04:08:00,66.4,59.7,29.86,SSW,196,0.0,5.0,79,0.00,,,0.00,Wunderground v.1.15,2013-04-01 08:08:00,
2013-04-01 04:13:00,66.4,59.7,29.86,SSE,150,0.0,3.0,79,0.00,,,0.00,Wunderground v.1.15,2013-04-01 08:13:00,
2013-04-01 04:18:00,66.4,59.7,29.86,SSE,158,0.0,3.0,79,0.00,,,0.00,Wunderground v.1.15,2013-04-01 08:18:00,
2013-04-01 04:23:00,66.4,59.7,29.86,SE,140,0.0,3.0,79,0.00,,,0.00,Wunderground v.1.15,2013-04-01 08:23:00,
2013-04-01 04:28:00,66.4,59.7,29.86,South,172,0.0,3.0,79,0.00,,,0.00,Wunderground v.1.15,2013-04-01 08:28:00,
2013-04-01 04:33:00,66.4,59.7,29.87,SSE,164,0.0,7.0,79,0.00,,,0.00,Wunderground v.1.15,2013-04-01 08:33:00,
2013-04-01 04:38:00,66.4,60.0,29.87,SSE,148,2.0,7.0,80,0.00,,,0.00,Wunderground v.1.15,2013-04-01 08:38:00,
2013-04-01 04:43:00,66.4,60.0,29.87,SSE,165,0.0,2.0,80,0.00,,,0.00,Wunderground v.1.15,2013-04-01 08:43:00,
2013-04-01 04:48:00,66.4,60.0,29.87,ESE,114,0.0,2.0,80,0.00,,,0.00,Wunderground v.1.15,2013-04-01 08:48:00,
2013-04-01 04:53:00,66.4,60.0,29.87,SSE,155,0.0,2.0,80,0.00,,,0.00,Wunderground v.1.15,2013-04-01 08:53:00,
2013-04-01 04:58:00,66.4,60.0,29.87,South,186,0.0,4.0,80,0.00,,,0.00,Wunderground v.1.15,2013-04-01 08:58:00,
2013-04-01 05:03:00,66.4,60.0,29.87,South,169,0.0,7.0,80,0.00,,,0.00,Wunderground v.1.15,2013-04-01 09:03:00,
2013-04-01 05:08:00,66.4,60.0,29.87,SE,144,1.0,7.0,80,0.00,,,0.00,Wunderground v.1.15,2013-04-01 09:08:00,
2013-04-01 05:14:00,66.4,60.0,29.87,SE,144,0.0,6.0,80,0.00,,,0.00,Wunderground v.1.15,2013-04-01 09:14:00,
2013-04-01 05:19:00,66.6,60.2,29.86,SSE,160,0.0,6.0,80,0.00,,,0.00,Wunderground v.1.15,2013-04-01 09:19:00,
2013-04-01 05:24:00,66.6,60.2,29.86,SE,126,0.0,7.0,80,0.00,,,0.00,Wunderground v.1.15,2013-04-01 09:24:00,
2013-04-01 05:29:00,66.8,60.4,29.86,South,185,1.0,7.0,80,0.00,,,0.00,Wunderground v.1.15,2013-04-01 09:29:00,
2013-04-01 05:34:00,66.8,60.4,29.84,SSE,148,10.0,10.0,80,0.00,,,0.00,Wunderground v.1.15,2013-04-01 09:34:00,
2013-04-01 05:39:00,66.9,60.5,29.84,SSW,198,0.0,12.0,80,0.00,,,0.00,Wunderground v.1.15,2013-04-01 09:39:00,
2013-04-01 05:44:00,66.9,60.5,29.84,SSE,155,0.0,3.0,80,0.00,,,0.00,Wunderground v.1.15,2013-04-01 09:44:00,
2013-04-01 05:49:00,67.1,60.7,29.86,South,175,0.0,6.0,80,0.00,,,0.00,Wunderground v.1.15,2013-04-01 09:49:00,
2013-04-01 05:54:00,67.1,60.7,29.86,South,179,0.0,2.0,80,0.00,,,0.00,Wunderground v.1.15,2013-04-01 09:54:00,
2013-04-01 05:59:00,67.1,61.1,29.86,South,179,0.0,3.0,81,0.00,,,0.00,Wunderground v.1.15,2013-04-01 09:59:00,
2013-04-01 06:04:00,67.1,61.1,29.86,South,179,0.0,1.0,81,0.00,,,0.00,Wunderground v.1.15,2013-04-01 10:04:00,
2013-04-01 06:09:00,67.1,61.1,29.86,South,185,0.0,2.0,81,0.00,,,0.00,Wunderground v.1.15,2013-04-01 10:09:00,
2013-04-01 06:14:00,67.1,61.1,29.86,SSE,161,0.0,1.0,81,0.00,,,0.00,Wunderground v.1.15,2013-04-01 10:14:00,
2013-04-01 06:19:00,67.1,61.1,29.87,South,188,0.0,4.0,81,0.00,,,0.00,Wunderground v.1.15,2013-04-01 10:19:00,
2013-04-01 06:24:00,67.1,61.1,29.87,South,188,2.0,2.0,81,0.00,,,0.00,Wunderground v.1.15,2013-04-01 10:24:00,
2013-04-01 06:29:00,67.1,61.1,29.87,SSE,168,0.0,3.0,81,0.00,,,0.00,Wunderground v.1.15,2013-04-01 10:29:00,
2013-04-01 06:34:00,67.1,61.1,29.87,SW,227,0.0,3.0,81,0.00,,,0.00,Wunderground v.1.15,2013-04-01 10:34:00,
2013-04-01 06:39:00,67.1,61.1,29.87,SE,140,1.0,3.0,81,0.00,,,0.00,Wunderground v.1.15,2013-04-01 10:39:00,
2013-04-01 06:44:00,67.1,61.1,29.87,SSE,150,0.0,0.0,81,0.00,,,0.00,Wunderground v.1.15,2013-04-01 10:44:00,
2013-04-01 06:49:00,67.1,61.1,29.88,SSE,157,1.0,2.0,81,0.00,,,0.00,Wunderground v.1.15,2013-04-01 10:49:00,
2013-04-01 06:54:00,67.1,61.1,29.88,SSW,192,3.0,3.0,81,0.00,,,0.00,Wunderground v.1.15,2013-04-01 10:54:00,
2013-04-01 06:59:00,67.1,61.4,29.88,South,179,0.0,7.0,82,0.00,,,0.00,Wunderground v.1.15,2013-04-01 10:59:00,
2013-04-01 07:04:00,67.3,61.6,29.88,SSE,167,0.0,8.0,82,0.00,,,0.00,Wunderground v.1.15,2013-04-01 11:04:00,
2013-04-01 07:09:00,67.3,61.6,29.88,South,178,0.0,8.0,82,0.00,,,0.00,Wunderground v.1.15,2013-04-01 11:09:00,
2013-04-01 07:14:00,67.4,61.7,29.88,South,178,0.0,1.0,82,0.00,,,0.00,Wunderground v.1.15,2013-04-01 11:14:00,
2013-04-01 07:19:00,67.4,61.7,29.88,South,178,0.0,1.0,82,0.00,,,0.00,Wunderground v.1.15,2013-04-01 11:19:00,
2013-04-01 07:24:00,67.3,61.6,29.88,South,178,0.0,0.0,82,0.00,,,0.00,Wunderground v.1.15,2013-04-01 11:24:00,
2013-04-01 07:29:00,67.3,61.6,29.88,South,189,0.0,5.0,82,0.00,,,0.00,Wunderground v.1.15,2013-04-01 11:29:00,
2013-04-01 07:34:00,67.3,61.6,29.89,SW,224,2.0,3.0,82,0.00,,,0.00,Wunderground v.1.15,2013-04-01 11:34:00,
2013-04-01 07:39:00,67.4,61.7,29.89,SSW,208,0.0,3.0,82,0.00,,,0.00,Wunderground v.1.15,2013-04-01 11:39:00,
2013-04-01 07:44:00,67.4,62.1,29.89,SSW,210,0.0,5.0,83,0.00,,,0.00,Wunderground v.1.15,2013-04-01 11:44:00,
2013-04-01 07:49:00,67.4,62.1,29.90,SSE,160,0.0,5.0,83,0.00,,,0.00,Wunderground v.1.15,2013-04-01 11:49:00,
2013-04-01 07:54:00,67.6,62.3,29.90,South,172,0.0,6.0,83,0.00,,,0.00,Wunderground v.1.15,2013-04-01 11:54:00,
2013-04-01 07:59:00,67.6,62.3,29.90,South,172,0.0,6.0,83,0.00,,,0.00,Wunderground v.1.15,2013-04-01 11:59:00,
2013-04-01 08:04:00,67.6,62.3,29.90,South,178,0.0,0.0,83,0.00,,,0.00,Wunderground v.1.15,2013-04-01 12:04:00,
2013-04-01 08:09:00,67.6,62.3,29.90,South,181,0.0,3.0,83,0.00,,,0.00,Wunderground v.1.15,2013-04-01 12:09:00,
2013-04-01 08:14:00,67.8,62.4,29.90,SW,223,0.0,8.0,83,0.00,,,0.00,Wunderground v.1.15,2013-04-01 12:14:00,
2013-04-01 08:19:00,67.8,62.4,29.91,SSW,203,0.0,8.0,83,0.00,,,0.00,Wunderground v.1.15,2013-04-01 12:19:00,
2013-04-01 08:24:00,67.9,62.9,29.91,SW,227,4.0,7.0,84,0.00,,,0.00,Wunderground v.1.15,2013-04-01 12:24:00,
2013-04-01 08:29:00,68.1,63.1,29.91,SW,219,0.0,7.0,84,0.00,,,0.00,Wunderground v.1.15,2013-04-01 12:29:00,
2013-04-01 08:34:00,68.3,63.3,29.92,South,171,5.0,10.0,84,0.00,,,0.00,Wunderground v.1.15,2013-04-01 12:34:00,
2013-04-01 08:39:00,68.4,63.4,29.92,South,178,0.0,10.0,84,0.00,,,0.00,Wunderground v.1.15,2013-04-01 12:39:00,
2013-04-01 08:44:00,68.6,63.6,29.92,SSE,148,0.0,6.0,84,0.00,,,0.00,Wunderground v.1.15,2013-04-01 12:44:00,
2013-04-01 08:49:00,68.8,63.8,29.92,SSW,193,2.0,6.0,84,0.00,,,0.00,Wunderground v.1.15,2013-04-01 12:49:00,
2013-04-01 08:54:00,68.9,63.9,29.92,South,191,0.0,1.0,84,0.00,,,0.00,Wunderground v.1.15,2013-04-01 12:54:00,
2013-04-01 08:59:00,69.3,64.3,29.92,SW,226,0.0,8.0,84,0.00,,,0.00,Wunderground v.1.15,2013-04-01 12:59:00,
2013-04-01 09:04:00,69.4,64.0,29.92,SSE,165,0.0,6.0,83,0.00,,,0.00,Wunderground v.1.15,2013-04-01 13:04:00,
2013-04-01 09:09:00,69.6,64.2,29.92,SW,234,0.0,7.0,83,0.00,,,0.00,Wunderground v.1.15,2013-04-01 13:09:00,
2013-04-01 09:14:00,69.8,64.4,29.92,South,172,2.0,10.0,83,0.00,,,0.00,Wunderground v.1.15,2013-04-01 13:14:00,
2013-04-01 09:19:00,70.1,64.7,29.92,SSE,155,0.0,10.0,83,0.00,,,0.00,Wunderground v.1.15,2013-04-01 13:19:00,
2013-04-01 09:24:00,70.4,64.6,29.92,SSW,202,4.0,6.0,82,0.00,,,0.00,Wunderground v.1.15,2013-04-01 13:24:00,
2013-04-01 09:29:00,70.8,65.0,29.92,WSW,256,0.0,6.0,82,0.00,,,0.00,Wunderground v.1.15,2013-04-01 13:29:00,
2013-04-01 09:34:00,71.1,65.0,29.92,SSW,203,3.0,11.0,81,0.00,,,0.00,Wunderground v.1.15,2013-04-01 13:34:00,
2013-04-01 09:39:00,71.8,65.7,29.92,SW,230,0.0,11.0,81,0.00,,,0.00,Wunderground v.1.15,2013-04-01 13:39:00,
2013-04-01 09:44:00,72.1,65.6,29.92,WNW,298,3.0,8.0,80,0.00,,,0.00,Wunderground v.1.15,2013-04-01 13:44:00,
2013-04-01 09:49:00,72.5,66.0,29.91,SSW,202,3.0,10.0,80,0.00,,,0.00,Wunderground v.1.15,2013-04-01 13:49:00,
2013-04-01 09:54:00,73.0,66.1,29.91,SSW,213,1.0,10.0,79,0.00,,,0.00,Wunderground v.1.15,2013-04-01 13:54:00,
2013-04-01 09:59:00,73.3,66.0,29.91,South,184,0.0,11.0,78,0.00,,,0.00,Wunderground v.1.15,2013-04-01 13:59:00,
2013-04-01 10:04:00,73.7,66.4,29.91,SSW,208,0.0,7.0,78,0.00,,,0.00,Wunderground v.1.15,2013-04-01 14:04:00,
2013-04-01 10:09:00,73.9,66.2,29.91,SW,222,0.0,8.0,77,0.00,,,0.00,Wunderground v.1.15,2013-04-01 14:09:00,
2013-04-01 10:14:00,74.2,66.1,29.91,South,172,0.0,12.0,76,0.00,,,0.00,Wunderground v.1.15,2013-04-01 14:14:00,
2013-04-01 10:19:00,74.6,66.5,29.91,WSW,250,0.0,12.0,76,0.00,,,0.00,Wunderground v.1.15,2013-04-01 14:19:00,
2013-04-01 10:24:00,74.9,66.4,29.91,SW,233,0.0,10.0,75,0.00,,,0.00,Wunderground v.1.15,2013-04-01 14:24:00,
2013-04-01 10:29:00,75.3,66.4,29.91,South,171,3.0,11.0,74,0.00,,,0.00,Wunderground v.1.15,2013-04-01 14:29:00,
2013-04-01 10:34:00,75.6,66.7,29.92,ESE,113,0.0,10.0,74,0.00,,,0.00,Wunderground v.1.15,2013-04-01 14:34:00,
2013-04-01 10:39:00,76.0,66.7,29.92,NW,325,0.0,10.0,73,0.00,,,0.00,Wunderground v.1.15,2013-04-01 14:39:00,
2013-04-01 10:44:00,76.5,67.2,29.92,South,182,1.0,11.0,73,0.00,,,0.00,Wunderground v.1.15,2013-04-01 14:44:00,
2013-04-01 10:49:00,76.8,67.1,29.92,SSE,151,0.0,11.0,72,0.00,,,0.00,Wunderground v.1.15,2013-04-01 14:49:00,
2013-04-01 10:54:00,77.4,67.7,29.92,SSW,208,6.0,8.0,72,0.00,,,0.00,Wunderground v.1.15,2013-04-01 14:54:00,
2013-04-01 11:00:00,77.7,68.0,29.92,South,174,0.0,8.0,72,0.00,,,0.00,Wunderground v.1.15,2013-04-01 15:00:00,
2013-04-01 11:05:00,77.9,68.1,29.92,WSW,253,6.0,10.0,72,0.00,,,0.00,Wunderground v.1.15,2013-04-01 15:05:00,
2013-04-01 11:10:00,78.3,68.5,29.92,SSE,148,1.0,10.0,72,0.00,,,0.00,Wunderground v.1.15,2013-04-01 15:10:00,
2013-04-01 11:15:00,78.5,68.3,29.92,SSW,213,2.0,11.0,71,0.00,,,0.00,Wunderground v.1.15,2013-04-01 15:15:00,
2013-04-01 11:20:00,78.8,68.6,29.92,NW,306,0.0,2.0,71,0.00,,,0.00,Wunderground v.1.15,2013-04-01 15:20:00,
2013-04-01 11:25:00,79.2,68.6,29.92,WSW,258,0.0,10.0,70,0.00,,,0.00,Wunderground v.1.15,2013-04-01 15:25:00,
2013-04-01 11:30:00,79.4,68.8,29.92,NW,304,0.0,2.0,70,0.00,,,0.00,Wunderground v.1.15,2013-04-01 15:30:00,
2013-04-01 11:35:00,79.4,68.8,29.93,SSW,195,4.0,10.0,70,0.00,,,0.00,Wunderground v.1.15,2013-04-01 15:35:00,
2013-04-01 11:40:00,79.6,69.0,29.93,West,264,0.0,2.0,70,0.00,,,0.00,Wunderground v.1.15,2013-04-01 15:40:00,
2013-04-01 11:45:00,79.6,68.5,29.93,South,178,0.0,8.0,69,0.00,,,0.00,Wunderground v.1.15,2013-04-01 15:45:00,
2013-04-01 11:50:00,79.6,68.5,29.93,SSW,199,0.0,1.0,69,0.00,,,0.00,Wunderground v.1.15,2013-04-01 15:50:00,
2013-04-01 11:55:00,79.9,68.8,29.93,SW,216,4.0,11.0,69,0.00,,,0.00,Wunderground v.1.15,2013-04-01 15:55:00,
2013-04-01 12:00:00,80.1,68.6,29.93,WSW,248,0.0,2.0,68,0.00,,,0.00,Wunderground v.1.15,2013-04-01 16:00:00,
2013-04-01 12:05:00,79.9,68.4,29.93,West,270,3.0,11.0,68,0.00,,,0.00,Wunderground v.1.15,2013-04-01 16:05:00,
2013-04-01 12:10:00,79.8,68.3,29.93,WSW,251,10.0,11.0,68,0.00,,,0.00,Wunderground v.1.15,2013-04-01 16:10:00,
2013-04-01 12:15:00,79.6,68.5,29.93,SW,217,0.0,13.0,69,0.00,,,0.00,Wunderground v.1.15,2013-04-01 16:15:00,
2013-04-01 12:20:00,79.4,68.3,29.93,WSW,239,0.0,5.0,69,0.00,,,0.00,Wunderground v.1.15,2013-04-01 16:20:00,
2013-04-01 12:25:00,79.2,68.1,29.93,SW,236,5.0,7.0,69,0.00,,,0.00,Wunderground v.1.15,2013-04-01 16:25:00,
2013-04-01 12:30:00,79.4,68.3,29.93,SSW,198,0.0,1.0,69,0.00,,,0.00,Wunderground v.1.15,2013-04-01 16:30:00,
2013-04-01 12:35:00,79.2,68.1,29.93,South,171,3.0,15.0,69,0.00,,,0.00,Wunderground v.1.15,2013-04-01 16:35:00,
2013-04-01 12:40:00,79.2,68.6,29.93,South,181,0.0,5.0,70,0.00,,,0.00,Wunderground v.1.15,2013-04-01 16:40:00,
2013-04-01 12:45:00,79.4,68.8,29.93,SW,236,2.0,12.0,70,0.00,,,0.00,Wunderground v.1.15,2013-04-01 16:45:00,
2013-04-01 12:50:00,79.6,69.0,29.92,SW,215,7.0,7.0,70,0.00,,,0.00,Wunderground v.1.15,2013-04-01 16:50:00,
2013-04-01 12:55:00,79.8,68.7,29.92,South,174,3.0,8.0,69,0.00,,,0.00,Wunderground v.1.15,2013-04-01 16:55:00,
2013-04-01 13:00:00,79.9,68.8,29.92,SW,232,12.0,12.0,69,0.00,,,0.00,Wunderground v.1.15,2013-04-01 17:00:00,
2013-04-01 13:05:00,79.9,68.8,29.92,SSW,212,3.0,12.0,69,0.00,,,0.00,Wunderground v.1.15,2013-04-01 17:05:00,
2013-04-01 13:10:00,79.8,68.7,29.92,South,191,5.0,7.0,69,0.00,,,0.00,Wunderground v.1.15,2013-04-01 17:10:00,
2013-04-01 13:15:00,79.6,68.5,29.92,WSW,258,0.0,8.0,69,0.00,,,0.00,Wunderground v.1.15,2013-04-01 17:15:00,
2013-04-01 13:20:00,79.4,68.3,29.92,SW,215,0.0,3.0,69,0.00,,,0.00,Wunderground v.1.15,2013-04-01 17:20:00,
2013-04-01 13:25:00,79.2,68.6,29.92,SW,236,4.0,6.0,70,0.00,,,0.00,Wunderground v.1.15,2013-04-01 17:25:00,
2013-04-01 13:30:00,79.2,68.6,29.92,SSE,167,0.0,3.0,70,0.00,,,0.00,Wunderground v.1.15,2013-04-01 17:30:00,
2013-04-01 13:35:00,79.2,68.6,29.92,South,189,0.0,10.0,70,0.00,,,0.00,Wunderground v.1.15,2013-04-01 17:35:00,
2013-04-01 13:40:00,79.4,68.8,29.92,SW,220,0.0,7.0,70,0.00,,,0.00,Wunderground v.1.15,2013-04-01 17:40:00,
2013-04-01 13:45:00,79.4,68.3,29.92,SSW,205,0.0,7.0,69,0.00,,,0.00,Wunderground v.1.15,2013-04-01 17:45:00,
2013-04-01 13:51:00,79.6,68.5,29.91,WSW,257,6.0,6.0,69,0.00,,,0.00,Wunderground v.1.15,2013-04-01 17:51:00,
2013-04-01 13:56:00,79.8,68.3,29.91,SSW,193,0.0,8.0,68,0.00,,,0.00,Wunderground v.1.15,2013-04-01 17:56:00,
2013-04-01 14:01:00,79.8,67.9,29.91,South,171,6.0,10.0,67,0.00,,,0.00,Wunderground v.1.15,2013-04-01 18:01:00,
2013-04-01 14:06:00,80.1,68.6,29.91,West,265,0.0,11.0,68,0.00,,,0.00,Wunderground v.1.15,2013-04-01 18:06:00,
2013-04-01 14:11:00,80.3,68.3,29.91,WSW,237,6.0,6.0,67,0.00,,,0.00,Wunderground v.1.15,2013-04-01 18:11:00,
2013-04-01 14:16:00,80.5,68.1,29.91,NNW,329,0.0,9.0,66,0.00,,,0.00,Wunderground v.1.15,2013-04-01 18:16:00,
2013-04-01 14:21:00,80.7,67.8,29.90,NNE,31,12.0,12.0,65,0.00,,,0.00,Wunderground v.1.15,2013-04-01 18:21:00,
2013-04-01 14:26:00,80.7,67.8,29.90,SSE,150,5.0,12.0,65,0.00,,,0.00,Wunderground v.1.15,2013-04-01 18:26:00,
2013-04-01 14:31:00,80.5,67.6,29.91,WSW,251,5.0,5.0,65,0.00,,,0.00,Wunderground v.1.15,2013-04-01 18:31:00,
2013-04-01 14:36:00,80.3,67.5,29.91,NNW,332,3.0,14.0,65,0.00,,,0.00,Wunderground v.1.15,2013-04-01 18:36:00,
2013-04-01 14:41:00,79.6,66.8,29.91,SW,217,1.0,6.0,65,0.00,,,0.00,Wunderground v.1.15,2013-04-01 18:41:00,
2013-04-01 14:47:00,78.8,66.0,29.90,SW,216,1.0,8.0,65,0.00,,,0.00,Wunderground v.1.15,2013-04-01 18:47:00,
2013-04-01 14:52:00,77.9,65.6,29.90,WSW,239,0.0,6.0,66,0.00,,,0.00,Wunderground v.1.15,2013-04-01 18:52:00,
2013-04-01 14:57:00,77.4,65.6,29.90,NW,308,0.0,8.0,67,0.00,,,0.00,Wunderground v.1.15,2013-04-01 18:57:00,
2013-04-01 15:02:00,76.8,65.4,29.90,West,272,3.0,3.0,68,0.00,,,0.00,Wunderground v.1.15,2013-04-01 19:02:00,
2013-04-01 15:07:00,76.3,65.0,29.90,West,281,1.0,6.0,68,0.00,,,0.00,Wunderground v.1.15,2013-04-01 19:07:00,
2013-04-01 15:12:00,76.1,64.8,29.90,WSW,244,0.0,6.0,68,0.00,,,0.00,Wunderground v.1.15,2013-04-01 19:12:00,
2013-04-01 15:17:00,76.0,65.1,29.90,WNW,298,0.0,10.0,69,0.00,,,0.00,Wunderground v.1.15,2013-04-01 19:17:00,
2013-04-01 15:22:00,76.0,65.1,29.90,South,191,2.0,7.0,69,0.00,,,0.00,Wunderground v.1.15,2013-04-01 19:22:00,
2013-04-01 15:27:00,76.0,65.1,29.90,South,169,0.0,7.0,69,0.00,,,0.00,Wunderground v.1.15,2013-04-01 19:27:00,
2013-04-01 15:32:00,76.1,65.6,29.89,SW,226,0.0,5.0,70,0.00,,,0.00,Wunderground v.1.15,2013-04-01 19:32:00,
2013-04-01 15:37:00,76.3,65.4,29.89,SSW,210,4.0,6.0,69,0.00,,,0.00,Wunderground v.1.15,2013-04-01 19:37:00,
2013-04-01 15:43:00,76.3,65.8,29.89,SW,220,0.0,6.0,70,0.00,,,0.00,Wunderground v.1.15,2013-04-01 19:43:00,
2013-04-01 15:48:00,76.5,66.0,29.89,East,83,0.0,6.0,70,0.00,,,0.00,Wunderground v.1.15,2013-04-01 19:48:00,
2013-04-01 15:53:00,76.5,65.6,29.89,South,189,0.0,6.0,69,0.00,,,0.00,Wunderground v.1.15,2013-04-01 19:53:00,
2013-04-01 15:58:00,76.7,65.8,29.89,WNW,302,0.0,7.0,69,0.00,,,0.00,Wunderground v.1.15,2013-04-01 19:58:00,
2013-04-01 16:03:00,76.8,65.9,29.88,SW,224,0.0,8.0,69,0.00,,,0.00,Wunderground v.1.15,2013-04-01 20:03:00,
2013-04-01 16:08:00,77.2,66.2,29.88,SE,145,0.0,8.0,69,0.00,,,0.00,Wunderground v.1.15,2013-04-01 20:08:00,
2013-04-01 16:13:00,77.4,66.4,29.88,WNW,295,0.0,3.0,69,0.00,,,0.00,Wunderground v.1.15,2013-04-01 20:13:00,
2013-04-01 16:18:00,77.7,66.3,29.88,WSW,237,0.0,7.0,68,0.00,,,0.00,Wunderground v.1.15,2013-04-01 20:18:00,
2013-04-01 16:23:00,77.9,66.5,29.88,NNW,347,7.0,7.0,68,0.00,,,0.00,Wunderground v.1.15,2013-04-01 20:23:00,
2013-04-01 16:28:00,77.9,66.5,29.88,WNW,298,0.0,9.0,68,0.00,,,0.00,Wunderground v.1.15,2013-04-01 20:28:00,
2013-04-01 16:33:00,77.9,66.5,29.88,SW,215,0.0,6.0,68,0.00,,,0.00,Wunderground v.1.15,2013-04-01 20:33:00,
2013-04-01 16:38:00,78.1,66.7,29.88,West,278,0.0,7.0,68,0.00,,,0.00,Wunderground v.1.15,2013-04-01 20:38:00,
2013-04-01 16:43:00,78.1,66.7,29.88,West,263,0.0,6.0,68,0.00,,,0.00,Wunderground v.1.15,2013-04-01 20:43:00,
2013-04-01 16:48:00,77.9,66.5,29.87,SSW,209,0.0,6.0,68,0.00,,,0.00,Wunderground v.1.15,2013-04-01 20:48:00,
2013-04-01 16:53:00,77.9,66.5,29.87,West,263,1.0,7.0,68,0.00,,,0.00,Wunderground v.1.15,2013-04-01 20:53:00,
2013-04-01 16:58:00,77.7,66.3,29.87,WSW,244,0.0,8.0,68,0.00,,,0.00,Wunderground v.1.15,2013-04-01 20:58:00,
2013-04-01 17:03:00,77.9,66.5,29.87,NW,308,1.0,8.0,68,0.00,,,0.00,Wunderground v.1.15,2013-04-01 21:03:00,
2013-04-01 17:08:00,77.9,66.5,29.87,West,260,5.0,8.0,68,0.00,,,0.00,Wunderground v.1.15,2013-04-01 21:08:00,
2013-04-01 17:13:00,77.7,66.3,29.87,West,272,7.0,7.0,68,0.00,,,0.00,Wunderground v.1.15,2013-04-01 21:13:00,
2013-04-01 17:18:00,77.6,66.2,29.87,South,185,2.0,7.0,68,0.00,,,0.00,Wunderground v.1.15,2013-04-01 21:18:00,
2013-04-01 17:23:00,77.4,66.0,29.87,SW,222,0.0,8.0,68,0.00,,,0.00,Wunderground v.1.15,2013-04-01 21:23:00,
2013-04-01 17:28:00,77.0,66.0,29.87,SW,229,3.0,9.0,69,0.00,,,0.00,Wunderground v.1.15,2013-04-01 21:28:00,
2013-04-01 17:33:00,76.8,65.9,29.87,West,280,3.0,5.0,69,0.00,,,0.00,Wunderground v.1.15,2013-04-01 21:33:00,
2013-04-01 17:38:00,76.8,65.9,29.87,West,260,0.0,10.0,69,0.00,,,0.00,Wunderground v.1.15,2013-04-01 21:38:00,
2013-04-01 17:43:00,76.8,66.3,29.87,WSW,253,0.0,4.0,70,0.00,,,0.00,Wunderground v.1.15,2013-04-01 21:43:00,
2013-04-01 17:48:00,76.8,66.3,29.87,NW,320,0.0,4.0,70,0.00,,,0.00,Wunderground v.1.15,2013-04-01 21:48:00,
2013-04-01 17:53:00,76.7,66.2,29.87,WSW,244,1.0,1.0,70,0.00,,,0.00,Wunderground v.1.15,2013-04-01 21:53:00,
2013-04-01 17:58:00,76.5,66.0,29.87,SSW,200,0.0,6.0,70,0.00,,,0.00,Wunderground v.1.15,2013-04-01 21:58:00,
2013-04-01 18:03:00,76.3,65.8,29.87,WSW,241,0.0,5.0,70,0.00,,,0.00,Wunderground v.1.15,2013-04-01 22:03:00,
2013-04-01 18:08:00,76.1,66.0,29.87,North,349,0.0,6.0,71,0.00,,,0.00,Wunderground v.1.15,2013-04-01 22:08:00,
2013-04-01 18:13:00,76.0,65.9,29.87,NW,313,3.0,5.0,71,0.00,,,0.00,Wunderground v.1.15,2013-04-01 22:13:00,
2013-04-01 18:18:00,75.6,65.5,29.87,NW,304,0.0,5.0,71,0.00,,,0.00,Wunderground v.1.15,2013-04-01 22:18:00,
2013-04-01 18:23:00,75.4,65.7,29.87,West,265,1.0,5.0,72,0.00,,,0.00,Wunderground v.1.15,2013-04-01 22:23:00,
2013-04-01 18:28:00,75.1,65.5,29.87,SSW,213,0.0,5.0,72,0.00,,,0.00,Wunderground v.1.15,2013-04-01 22:28:00,
2013-04-01 18:33:00,74.9,65.3,29.88,SSE,160,0.0,6.0,72,0.00,,,0.00,Wunderground v.1.15,2013-04-01 22:33:00,
2013-04-01 18:38:00,74.6,65.0,29.88,West,272,0.0,6.0,72,0.00,,,0.00,Wunderground v.1.15,2013-04-01 22:38:00,
2013-04-01 18:43:00,74.4,65.2,29.88,West,268,2.0,3.0,73,0.00,,,0.00,Wunderground v.1.15,2013-04-01 22:43:00,
2013-04-01 18:48:00,74.0,64.8,29.88,NW,318,0.0,6.0,73,0.00,,,0.00,Wunderground v.1.15,2013-04-01 22:48:00,
2013-04-01 18:53:00,73.7,64.5,29.88,West,270,0.0,3.0,73,0.00,,,0.00,Wunderground v.1.15,2013-04-01 22:53:00,
2013-04-01 18:58:00,73.5,64.7,29.88,WNW,296,0.0,6.0,74,0.00,,,0.00,Wunderground v.1.15,2013-04-01 22:58:00,
2013-04-01 19:03:00,73.2,64.4,29.88,WSW,257,0.0,2.0,74,0.00,,,0.00,Wunderground v.1.15,2013-04-01 23:03:00,
2013-04-01 19:08:00,73.0,64.2,29.88,SSW,206,0.0,3.0,74,0.00,,,0.00,Wunderground v.1.15,2013-04-01 23:08:00,
2013-04-01 19:13:00,72.8,64.4,29.88,West,280,0.0,5.0,75,0.00,,,0.00,Wunderground v.1.15,2013-04-01 23:13:00,
2013-04-01 19:18:00,72.5,64.1,29.88,NW,325,0.0,5.0,75,0.00,,,0.00,Wunderground v.1.15,2013-04-01 23:18:00,
2013-04-01 19:23:00,72.3,64.3,29.88,NNW,342,0.0,5.0,76,0.00,,,0.00,Wunderground v.1.15,2013-04-01 23:23:00,
2013-04-01 19:28:00,72.3,64.3,29.88,NNW,328,0.0,5.0,76,0.00,,,0.00,Wunderground v.1.15,2013-04-01 23:28:00,
2013-04-01 19:33:00,72.1,64.1,29.88,NW,306,0.0,0.0,76,0.00,,,0.00,Wunderground v.1.15,2013-04-01 23:33:00,
2013-04-01 19:38:00,71.8,63.8,29.88,NW,306,0.0,0.0,76,0.00,,,0.00,Wunderground v.1.15,2013-04-01 23:38:00,
2013-04-01 19:43:00,71.6,63.6,29.88,WNW,299,0.0,1.0,76,0.00,,,0.00,Wunderground v.1.15,2013-04-01 23:43:00,
2013-04-01 19:48:00,71.5,63.5,29.88,WNW,295,0.0,1.0,76,0.00,,,0.00,Wunderground v.1.15,2013-04-01 23:48:00,
2013-04-01 19:53:00,71.3,63.3,29.88,WNW,295,0.0,0.0,76,0.00,,,0.00,Wunderground v.1.15,2013-04-01 23:53:00,
2013-04-01 19:59:00,71.1,63.5,29.88,WNW,295,0.0,0.0,77,0.00,,,0.00,Wunderground v.1.15,2013-04-01 23:59:00,
2013-04-01 20:04:00,70.9,63.3,29.88,WNW,295,0.0,0.0,77,0.00,,,0.00,Wunderground v.1.15,2013-04-02 00:04:00,
2013-04-01 20:09:00,70.8,63.2,29.88,WNW,292,0.0,0.0,77,0.00,,,0.00,Wunderground v.1.15,2013-04-02 00:09:00,
2013-04-01 20:14:00,70.6,63.4,29.88,WNW,292,0.0,0.0,78,0.00,,,0.00,Wunderground v.1.15,2013-04-02 00:14:00,
2013-04-01 20:19:00,70.4,63.2,29.89,WNW,292,0.0,0.0,78,0.00,,,0.00,Wunderground v.1.15,2013-04-02 00:19:00,
2013-04-01 20:24:00,70.3,63.1,29.89,WNW,292,0.0,0.0,78,0.00,,,0.00,Wunderground v.1.15,2013-04-02 00:24:00,
2013-04-01 20:29:00,70.1,62.9,29.89,WNW,292,0.0,0.0,78,0.00,,,0.00,Wunderground v.1.15,2013-04-02 00:29:00,
2013-04-01 20:34:00,69.9,62.7,29.89,WNW,292,0.0,0.0,78,0.00,,,0.00,Wunderground v.1.15,2013-04-02 00:34:00,
2013-04-01 20:39:00,69.8,63.0,29.89,WNW,292,0.0,0.0,79,0.00,,,0.00,Wunderground v.1.15,2013-04-02 00:39:00,
2013-04-01 20:44:00,69.6,62.8,29.89,WNW,292,0.0,0.0,79,0.00,,,0.00,Wunderground v.1.15,2013-04-02 00:44:00,
2013-04-01 20:49:00,69.4,62.6,29.89,WNW,292,0.0,0.0,79,0.00,,,0.00,Wunderground v.1.15,2013-04-02 00:49:00,
2013-04-01 20:54:00,69.3,62.5,29.89,WNW,292,0.0,0.0,79,0.00,,,0.00,Wunderground v.1.15,2013-04-02 00:54:00,
2013-04-01 20:59:00,69.1,62.7,29.89,N/A,-737280,0.0,-999.0,80,0.00,,,0.00,Wunderground v.1.15,2013-04-02 00:59:00,
2013-04-01 21:04:00,69.1,62.7,29.89,N/A,-737280,0.0,-999.0,80,0.00,,,0.00,Wunderground v.1.15,2013-04-02 01:04:00,
2013-04-01 21:09:00,68.9,62.5,29.89,N/A,-737280,0.0,-999.0,80,0.00,,,0.00,Wunderground v.1.15,2013-04-02 01:09:00,
2013-04-01 21:14:00,68.8,62.4,29.90,N/A,-737280,0.0,-999.0,80,0.00,,,0.00,Wunderground v.1.15,2013-04-02 01:14:00,
2013-04-01 21:19:00,68.6,62.2,29.90,N/A,-737280,0.0,-999.0,80,0.00,,,0.00,Wunderground v.1.15,2013-04-02 01:19:00,
2013-04-01 21:24:00,68.4,62.0,29.90,N/A,-737280,0.0,-999.0,80,0.00,,,0.00,Wunderground v.1.15,2013-04-02 01:24:00,
2013-04-01 21:29:00,68.3,61.9,29.91,N/A,-737280,0.0,-999.0,80,0.00,,,0.00,Wunderground v.1.15,2013-04-02 01:29:00,
2013-04-01 21:34:00,68.3,61.9,29.91,WNW,293,0.0,-999.0,80,0.00,,,0.00,Wunderground v.1.15,2013-04-02 01:34:00,
2013-04-01 21:39:00,68.1,62.0,29.91,North,0,0.0,-999.0,81,0.00,,,0.00,Wunderground v.1.15,2013-04-02 01:39:00,
2013-04-01 21:44:00,68.1,62.0,29.92,N/A,-737280,0.0,-999.0,81,0.00,,,0.00,Wunderground v.1.15,2013-04-02 01:44:00,
2013-04-01 21:59:00,67.8,61.8,29.92,N/A,-737280,0.0,-999.0,81,0.00,,,0.00,Wunderground v.1.15,2013-04-02 01:59:00,
2013-04-01 22:00:00,67.8,61.8,29.92,N/A,-737280,0.0,-999.0,81,0.00,,,0.00,Wunderground v.1.15,2013-04-02 02:00:00,
2013-04-01 22:04:00,67.6,61.9,29.92,N/A,-737280,0.0,-999.0,82,0.00,,,0.00,Wunderground v.1.15,2013-04-02 02:04:00,
2013-04-01 22:05:00,67.6,61.9,29.92,N/A,-737280,0.0,-999.0,82,0.00,,,0.00,Wunderground v.1.15,2013-04-02 02:05:00,
2013-04-01 22:09:00,67.6,61.9,29.92,N/A,-737280,0.0,-999.0,82,0.00,,,0.00,Wunderground v.1.15,2013-04-02 02:09:00,
2013-04-01 22:10:00,67.6,61.9,29.92,N/A,-737280,0.0,-999.0,82,0.00,,,0.00,Wunderground v.1.15,2013-04-02 02:10:00,
2013-04-01 22:14:00,67.4,61.7,29.92,N/A,-737280,0.0,-999.0,82,0.00,,,0.00,Wunderground v.1.15,2013-04-02 02:14:00,
2013-04-01 22:15:00,67.4,61.7,29.92,N/A,-737280,0.0,-999.0,82,0.00,,,0.00,Wunderground v.1.15,2013-04-02 02:15:00,
2013-04-01 22:19:00,67.4,61.7,29.92,N/A,-737280,0.0,-999.0,82,0.00,,,0.00,Wunderground v.1.15,2013-04-02 02:19:00,
2013-04-01 22:20:00,67.4,61.7,29.92,N/A,-737280,0.0,-999.0,82,0.00,,,0.00,Wunderground v.1.15,2013-04-02 02:20:00,
2013-04-01 22:24:00,67.3,61.6,29.92,N/A,-737280,0.0,-999.0,82,0.00,,,0.00,Wunderground v.1.15,2013-04-02 02:24:00,
2013-04-01 22:25:00,67.3,61.6,29.92,N/A,-737280,0.0,-999.0,82,0.00,,,0.00,Wunderground v.1.15,2013-04-02 02:25:00,
2013-04-01 22:29:00,67.3,61.6,29.92,N/A,-737280,0.0,-999.0,82,0.00,,,0.00,Wunderground v.1.15,2013-04-02 02:29:00,
2013-04-01 22:30:00,67.3,61.6,29.92,N/A,-737280,0.0,-999.0,82,0.00,,,0.00,Wunderground v.1.15,2013-04-02 02:30:00,
2013-04-01 22:34:00,67.1,61.8,29.92,N/A,-737280,0.0,-999.0,83,0.00,,,0.00,Wunderground v.1.15,2013-04-02 02:34:00,
2013-04-01 22:35:00,67.1,61.8,29.92,N/A,-737280,0.0,-999.0,83,0.00,,,0.00,Wunderground v.1.15,2013-04-02 02:35:00,
2013-04-01 22:39:00,67.1,61.8,29.92,N/A,-737280,0.0,-999.0,83,0.00,,,0.00,Wunderground v.1.15,2013-04-02 02:39:00,
2013-04-01 22:40:00,67.1,61.8,29.92,N/A,-737280,0.0,-999.0,83,0.00,,,0.00,Wunderground v.1.15,2013-04-02 02:40:00,
2013-04-01 22:44:00,67.1,61.8,29.92,N/A,-737280,0.0,-999.0,83,0.00,,,0.00,Wunderground v.1.15,2013-04-02 02:44:00,
2013-04-01 22:45:00,67.1,61.8,29.92,N/A,-737280,0.0,-999.0,83,0.00,,,0.00,Wunderground v.1.15,2013-04-02 02:45:00,
2013-04-01 22:50:00,66.9,61.6,29.92,N/A,-737280,0.0,-999.0,83,0.00,,,0.00,Wunderground v.1.15,2013-04-02 02:50:00,
2013-04-01 22:55:00,66.9,61.6,29.92,N/A,-737280,0.0,-999.0,83,0.00,,,0.00,Wunderground v.1.15,2013-04-02 02:55:00,
2013-04-01 22:59:00,66.8,61.5,29.92,N/A,-737280,0.0,-999.0,83,0.00,,,0.00,Wunderground v.1.15,2013-04-02 02:59:00,
2013-04-01 23:00:00,66.8,61.5,29.92,N/A,-737280,0.0,-999.0,83,0.00,,,0.00,Wunderground v.1.15,2013-04-02 03:00:00,
2013-04-01 23:04:00,66.8,61.5,29.92,N/A,-737280,0.0,-999.0,83,0.00,,,0.00,Wunderground v.1.15,2013-04-02 03:04:00,
2013-04-01 23:05:00,66.8,61.5,29.92,N/A,-737280,0.0,-999.0,83,0.00,,,0.00,Wunderground v.1.15,2013-04-02 03:05:00,
2013-04-01 23:09:00,66.6,61.3,29.92,N/A,-737280,0.0,-999.0,83,0.00,,,0.00,Wunderground v.1.15,2013-04-02 03:09:00,
2013-04-01 23:10:00,66.6,61.3,29.92,N/A,-737280,0.0,-999.0,83,0.00,,,0.00,Wunderground v.1.15,2013-04-02 03:10:00,
2013-04-01 23:14:00,66.6,61.3,29.92,N/A,-737280,0.0,-999.0,83,0.00,,,0.00,Wunderground v.1.15,2013-04-02 03:14:00,
2013-04-01 23:15:00,66.6,61.3,29.92,N/A,-737280,0.0,-999.0,83,0.00,,,0.00,Wunderground v.1.15,2013-04-02 03:15:00,
2013-04-01 23:19:00,66.4,61.1,29.92,N/A,-737280,0.0,-999.0,83,0.00,,,0.00,Wunderground v.1.15,2013-04-02 03:19:00,
2013-04-01 23:20:00,66.4,61.1,29.92,N/A,-737280,0.0,-999.0,83,0.00,,,0.00,Wunderground v.1.15,2013-04-02 03:20:00,
2013-04-01 23:24:00,66.4,61.1,29.92,N/A,-737280,0.0,-999.0,83,0.00,,,0.00,Wunderground v.1.15,2013-04-02 03:24:00,
2013-04-01 23:25:00,66.4,61.1,29.92,N/A,-737280,0.0,-999.0,83,0.00,,,0.00,Wunderground v.1.15,2013-04-02 03:25:00,
2013-04-01 23:30:00,66.3,61.0,29.92,N/A,-737280,0.0,-999.0,83,0.00,,,0.00,Wunderground v.1.15,2013-04-02 03:30:00,
2013-04-01 23:35:00,66.3,61.3,29.92,N/A,-737280,0.0,-999.0,84,0.00,,,0.00,Wunderground v.1.15,2013-04-02 03:35:00,
2013-04-01 23:40:00,66.1,61.1,29.92,N/A,-737280,0.0,-999.0,84,0.00,,,0.00,Wunderground v.1.15,2013-04-02 03:40:00,
2013-04-01 23:45:00,66.0,61.0,29.92,N/A,-737280,0.0,-999.0,84,0.00,,,0.00,Wunderground v.1.15,2013-04-02 03:45:00,
2013-04-01 23:50:00,65.8,60.8,29.92,N/A,-737280,0.0,-999.0,84,0.00,,,0.00,Wunderground v.1.15,2013-04-02 03:50:00,
2013-04-01 23:55:00,65.8,60.8,29.92,N/A,-737280,0.0,-999.0,84,0.00,,,0.00,Wunderground v.1.15,2013-04-02 03:55:00,